Location: Observatoire
(46.1952°N, 5.3391°E)
Time: 15:13:37
(UTC+01:00)

Courier 1B - Pass Details

Date: 25 February 2026
Orbit: 962 x 1208 km, 28.3° (Epoch: 5 March)

Event Time Altitude Azimuth Distance (km) Brightness Sun altitude
Rises 21:09:49 0° 246° (WSW) 3,833 11.2 -29.9°
Reaches altitude 10° 21:14:06 10° 222° (SW) 2,933 10.2 -30.6°
Maximum altitude 21:17:26 14° 194° (SSW) 2,702 9.7 -31.2°
Enters shadow 21:17:28 14° 194° (SSW) 2,702 9.7 -31.2°
